TimeMDT,TemperatureF,Dew PointF,Humidity,Sea Level PressureIn,VisibilityMPH,Wind Direction,Wind SpeedMPH,Gust SpeedMPH,PrecipitationIn,Events,Conditions,WindDirDegrees,DateUTC
12:15 AM,44.6,33.8,66,29.98,10.0,SSE,6.9,-,N/A,,Clear,160,2012-10-09 06:15:00
12:55 AM,42.8,33.8,70,29.98,10.0,East,4.6,-,N/A,,Clear,100,2012-10-09 06:55:00
1:15 AM,42.8,30.2,61,29.98,10.0,Calm,Calm,-,N/A,,Clear,0,2012-10-09 07:15:00
1:55 AM,44.6,32.0,61,29.99,10.0,SE,4.6,-,N/A,,Clear,140,2012-10-09 07:55:00
2:15 AM,39.2,33.8,81,29.99,10.0,NE,5.8,-,N/A,,Clear,40,2012-10-09 08:15:00
2:35 AM,41.0,33.8,76,30.00,10.0,Calm,Calm,-,N/A,,Clear,0,2012-10-09 08:35:00
2:55 AM,42.8,33.8,70,30.00,10.0,South,3.5,-,N/A,,Clear,190,2012-10-09 08:55:00
3:15 AM,42.8,33.8,70,30.00,10.0,Calm,Calm,-,N/A,,Clear,0,2012-10-09 09:15:00
3:35 AM,39.2,30.2,70,30.00,10.0,Calm,Calm,-,N/A,,Clear,0,2012-10-09 09:35:00
3:55 AM,41.0,32.0,70,30.00,10.0,Calm,Calm,-,N/A,,Clear,0,2012-10-09 09:55:00
4:15 AM,41.0,32.0,70,30.01,10.0,East,3.5,-,N/A,,Clear,90,2012-10-09 10:15:00
4:35 AM,41.0,33.8,76,30.02,10.0,NNW,4.6,-,N/A,,Clear,340,2012-10-09 10:35:00
4:55 AM,44.6,35.6,71,30.02,10.0,NW,4.6,-,N/A,,Clear,320,2012-10-09 10:55:00
5:15 AM,42.8,35.6,76,30.02,10.0,ENE,4.6,-,N/A,,Clear,60,2012-10-09 11:15:00
5:55 AM,39.2,32.0,75,30.02,10.0,Calm,Calm,-,N/A,,Clear,0,2012-10-09 11:55:00
6:50 AM,39.2,32.0,75,30.04,15.0,Calm,Calm,-,N/A,,Clear,0,2012-10-09 12:50:00
7:50 AM,39.2,32.0,75,30.05,15.0,Calm,Calm,-,N/A,,Partly Cloudy,0,2012-10-09 13:50:00
8:50 AM,50.0,32.0,50,30.07,15.0,Variable,5.8,-,N/A,,Partly Cloudy,0,2012-10-09 14:50:00
11:50 AM,62.6,35.6,37,30.08,15.0,Calm,Calm,-,N/A,,Partly Cloudy,0,2012-10-09 17:50:00
1:54 PM,69.8,35.6,28,30.04,15.0,Calm,Calm,-,N/A,,Partly Cloudy,0,2012-10-09 19:54:00
3:55 PM,73.4,26.6,18,30.02,15.0,NW,4.6,-,N/A,,Partly Cloudy,310,2012-10-09 21:55:00
3:59 PM,73.4,30.2,20,30.02,15.0,NW,4.6,-,N/A,,Partly Cloudy,310,2012-10-09 21:59:00
4:49 PM,73.4,30.2,20,30.01,15.0,NW,5.8,-,N/A,,Partly Cloudy,310,2012-10-09 22:49:00
5:51 PM,69.8,39.2,33,30.00,15.0,NW,8.1,-,N/A,,Partly Cloudy,310,2012-10-09 23:51:00
6:58 PM,62.6,42.8,48,30.01,15.0,NW,10.4,-,N/A,,Scattered Clouds,310,2012-10-10 00:58:00
7:52 PM,62.6,35.6,37,30.02,15.0,WNW,10.4,-,N/A,,Scattered Clouds,300,2012-10-10 01:52:00
8:55 PM,57.2,35.6,44,30.04,15.0,WNW,3.5,-,N/A,,Scattered Clouds,300,2012-10-10 02:55:00
9:15 PM,55.4,39.2,54,30.04,10.0,North,6.9,-,N/A,,Clear,10,2012-10-10 03:15:00
9:35 PM,55.4,37.4,51,30.05,10.0,NE,4.6,-,N/A,,Clear,40,2012-10-10 03:35:00
9:55 PM,57.2,37.4,48,30.05,10.0,Calm,Calm,-,N/A,,Clear,0,2012-10-10 03:55:00
10:15 PM,55.4,37.4,51,30.05,10.0,ESE,5.8,-,N/A,,Clear,120,2012-10-10 04:15:00
10:35 PM,53.6,39.2,58,30.06,10.0,ESE,4.6,-,N/A,,Clear,120,2012-10-10 04:35:00
10:55 PM,51.8,37.4,58,30.06,10.0,Calm,Calm,-,N/A,,Clear,0,2012-10-10 04:55:00
11:15 PM,51.8,33.8,50,30.06,10.0,East,3.5,-,N/A,,Clear,80,2012-10-10 05:15:00
11:55 PM,51.8,33.8,50,30.06,10.0,ESE,3.5,-,N/A,,Clear,110,2012-10-10 05:55:00